7 * 24
多渠道服务支持
SECOR 5(EGRS 5)是美国于1965年8月10日发射的军事测地卫星,属于SECOR系列卫星的第五颗,该系列卫星全称“Sequential Collation of Range”,服务于全球大地测量任务,利用测距技术为军事测绘提供精准的地理坐标数据,帮助完善地球形状与重力场研究。作为冷战时期美国早期航天测绘工程的组成部分,它为后续军事行动、地图绘制以及大地测量技术发展积累了宝贵实践经验,是航天技术应用于大地测量领域的早期探索实践案例。
美国
(US)
| 数据来源 | 国际轨道数据 |
| 星历时间: | 2026-09-14T04:44:46+0800 8小时前 查看轨道信息 |
| 半长轴: | 8155.822km |
| 偏心率: | 0.0785843 |
| 轨道倾角: | 69.230° |
| 近地点辐角 | 92.931° |
| 升交点赤经 | 114.066° |
| 平近点角 | 290.992° |
| 近地点: | 1136.765km |
| 远地点: | 2418.605km |
| 周期: | 122.169分钟 |
| 每日圈数: | 11.786943 |